Regional Weather Roundup
Issued by NWS Grand Forks, ND

Home | Current Version | Previous Version | Text Only | Print | Product List | Glossary On
Versions: 1 2 3 4 5 6 7 8 9 10 11 12 13 14 15 16 17 18 19 20 21 22 23 24 25 26 27 28 29 30 31 32 33 34 35 36 37 38 39 40 41 42 43 44 45 46 47 48 49 50
000
ASUS43 KFGF 250831
RWRFGF
PRAIRIE TO PINES  WEATHER ROUNDUP
NATIONAL WEATHER SERVICE EASTERN NORTH DAKOTA/GRAND FORKS ND
300 AM CDT FRI JUL 25 2014

 **SATELLITE DATA USED TO AUGMENT SKY COVER AT AUTOMATED STATIONS**
 *****  WEATHER ACROSS EASTERN NORTH DAKOTA  *****

CITY           SKY/WX    TMP DP  RH WIND       PRES   REMARKS
GRAND FORKS    CLOUDY    70  61  73 SE8       29.76F
GRAND FRKS AFB CLOUDY    68  65  91 SE8       29.76F
GRAND FRKS NWS   N/A     68 N/A N/A SE13        N/A
DEVILS LAKE    CLOUDY    66  61  82 SE14      29.72F
FARGO          CLOUDY    69  61  75 SE12      29.74S
WAHPETON ARPT  CLOUDY    63  59  88 SE13      29.71F
$$

 ***** WEATHER ACROSS CENTRAL AND WESTERN NORTH DAKOTA  *****

CITY           SKY/WX    TMP DP  RH WIND       PRES   REMARKS
BISMARCK       PTCLDY    68  64  87 N7        29.74R
MINOT          CLOUDY    67  65  93 SE5       29.72F
JAMESTOWN      MOCLDY    65  62  90 E7        29.73R
MINOT AFB      CLOUDY    67  67 100 SE15      29.72S
GARRISON         N/A     67  65  93 NE6       29.74S
WILLISTON      CLEAR     56  52  86 NW3       29.83S
DICKINSON      CLEAR     60  56  86 NW17      29.83R
HETTINGER      CLEAR     63  57  81 NW17G26   29.83R
$$

 *****  OTHER AIRPORT OBSERVATIONS IN OUR AREA  *****

CITY           SKY/WX    TMP DP  RH WIND       PRES   REMARKS
WALHALLA         N/A     66  66 100 S5          N/A
GRAFTON AIRPOR FAIR      66  63  88 SE18      29.70F
VALLEY CITY AR CLOUDY    64  64 100 E12G17    29.72F
CANDO          PTSUNNY   64  64 100 NE7       29.72F
CAVALIER APRT  FAIR      68  61  77 S8        29.70F
GWINNER        SUNNY     64  64 100 E9        29.69F
SHEYENNE NWR     N/A     64  63  95 E6        29.95S
ROLLA          PTSUNNY   64  64 100 S18G25    29.69F
 ***** THE ABOVE OBSERVATIONS ARE NON NWS ARE NOT QUALITY
       CONTROLLED AND MAY MIS-REPORT RAIN FOR SNOW...
$$

  *****  WEATHER ACROSS NORTHERN MINNESOTA  *****

CITY           SKY/WX    TMP DP  RH WIND       PRES   REMARKS
FLAG ISLAND    MOCLDY    68  61  77 CALM      29.79F
WARROAD        MOCLDY    63  59  88 SE3       29.80F
ROSEAU         MOCLDY    63  57  82 E6        29.79F
HALLOCK        MOCLDY    66  61  82 SE10      29.72F
THF RVR FALLS  CLOUDY    66  61  82 SE6       29.80F
BAUDETTE       CLOUDY    64  58  80 E3        29.83F
WASKISH        CLOUDY    63  61  94 CALM      29.83R
CROOKSTON      MOCLDY    66  63  88 SE7       29.78F
$$
  *****  WEATHER ACROSS CENTRAL AND WEST MINNESOTA  *****

CITY           SKY/WX    TMP DP  RH WIND       PRES   REMARKS
FOSSTON        CLOUDY    64  57  77 CALM      29.80F
BEMIDJI        LGT RAIN  65  61  85 S6        29.81F
PARK RAPIDS    LGT RAIN  67  61  81 S13       29.83S
ELBOW LAKE     TSTM      63  61  93 S15       29.79S
WADENA         CLOUDY    64  57  77 SE9       29.82F
DETROIT LAKES  CLOUDY    68  59  73 SE15      29.80F
MOORHEAD       CLOUDY    70  64  83 SE6G12    29.76F
FERGUS FALLS   CLOUDY    64  61  88 SE10      29.77F
MORRIS MN      CLOUDY    64  63  94 S10G23    29.78F
STAPLES        CLOUDY    64  57  77 S8        29.83F
$$
  *****  WEATHER ELSEWHERE ACROSS MINNESOTA  *****

CITY           SKY/WX    TMP DP  RH WIND       PRES   REMARKS
DULUTH         MOCLDY    62  56  80 E7        29.87F
INTRNTL FALLS  CLOUDY    59  57  93 CALM      29.83F
ELY            PTCLDY    57  54  88 CALM      29.86F
CLOQUET        MOCLDY    63  57  82 CALM      29.89R
WHEATON        CLOUDY    63  61  94 NE12      29.75F
BRAINERD       CLOUDY    65  59  81 S7        29.86R
HIBBING        MOCLDY    61  58  90 E5        29.86F
ALEXANDRIA     TSTM      63  60  90 SE13      29.85R
SAINT CLOUD    CLOUDY    67  60  78 SE7       29.85R
MINNEAPOLIS    CLOUDY    68  59  73 SE10      29.89R
$$

  *****  WEATHER ACROSS SOUTH DAKOTA  *****

CITY           SKY/WX    TMP DP  RH WIND       PRES   REMARKS
SIOUX FALLS    MOCLDY    66  61  84 E10       29.72R
BROOKINGS      NOT AVBL
WATERTOWN      CLOUDY    66  63  90 SE15G26   29.71F
HURON          CLOUDY    69  63  81 SE9       29.68F
SISSETON         N/A     65  64  97 SE12      29.71F
ABERDEEN       CLOUDY    68  65  90 NW9       29.68R
MITCHELL       MOCLDY    68  64  87 E5        29.71R
PIERRE         PTCLDY    70  66  87 E10       29.65F
MOBRIDGE         N/A     68  65  90 NW9       29.65R
RAPID CITY     CLEAR     67  59  75 NW26G39   29.86R
$$

  *****  SOME WEATHER IN NEARBY STATES *****

CITY           SKY/WX    TMP DP  RH WIND       PRES   REMARKS
GLASGOW MT     CLEAR     54  38  54 W7        29.89S
GREAT FALLS MT CLEAR     53  35  50 W10       29.99F
CHEYENNE WY    CLEAR     67  52  58 SW12      30.11F
SCOTTSBLUFF NE CLEAR     81  52  36 VRB7G23   29.89F
OMAHA NE       LGT RAIN  77  65  66 SW25G32   29.81F
DES MOINES IA  CLOUDY    67  59  75 E12       29.93R THUNDER
DAVENPORT IA   CLEAR     62  54  74 SE12      29.99F
CHICAGO IL     CLEAR     56  47  71 CALM      30.06F
EAU CLAIRE WI  MOCLDY    66  60  81 S8        29.91F
LA CROSSE WI   PTCLDY    67  59  75 SE7       29.94F
$$

  *****  SOME NATIONAL WEATHER *****

CITY           SKY/WX    TMP DP  RH WIND       PRES   REMARKS
LA GUARDIA NY  PTCLDY    69  54  58 N9        29.94S
RALEIGH NC     MOCLDY    66  64  94 CALM      30.00S
ATLANTA GA     PTCLDY    71  69  93 W3        29.99F
NEW ORLEANS LA PTCLDY    79  75  87 W6        29.98F
OKLAHOMA CITY  PTCLDY    74  68  81 S7        30.00S
ALBUQUERQUE NM PTCLDY    77  40  26 S9        30.21F
SALT LAKE CITY PTCLDY    69  45  41 N3        29.99S
LOS ANGELES CA PTCLDY    73  58  59 S3        29.84R
BOISE ID       CLEAR     61  33  35 W5        30.06S
SEATTLE WA     CLOUDY    59  50  72 NE6       30.21F
$$

*** WEATHER ACROSS MANITOBA...SASKATCHEWAN AND ONTARIO ***
                ***ONTARIO***

CITY           SKY/WX    TMP DP  RH WIND       PRES   REMARKS
GERALDTON      CLEAR     55  50  82 SW6       29.85F
THUNDER BAY    CLEAR     52  50  93 N2        29.89F
SIOUX LOOKOUT  PTCLDY    48  48 100 CALM      29.85F
TORONTO        PTCLDY    57  48  72 W5        30.02F
BIG TROUT LK   CLEAR     52  48  87 N5        29.79R
PICKLE LAKE    NOT AVBL
DRYDEN         MOCLDY    61  55  82 S6        29.86F
KENORA         PTCLDY    59  57  94 E3        29.86
$$
                *** MANITOBA***

CITY           SKY/WX    TMP DP  RH WIND       PRES   REMARKS
BRANDON        MOCLDY    63  63 100 N6        29.72S
DAUPHIN        CLEAR     63  61  94 NW3       29.70R
ISLAND LAKE    PTCLDY    64  55  72 NW6       29.80F
PILOT MOUND      N/A     64  61  88 S10         N/A
THE PAS        PTCLDY    64  61  88 SE8       29.66F
THOMPSON       CLEAR     52  50  93 CALM      29.79S
WINNIPEG       MOCLDY    64  59  82 SE9       29.74F
LYNN LAKE      CLEAR     59  52  77 E5        29.76F
CHURCHILL      MOCLDY    52  48  87 N8        29.87F
GILLAM         MOCLDY    48  46  93 CALM      29.85F
$$
                ***SASKATCHEWAN***

CITY           SKY/WX    TMP DP  RH WIND       PRES   REMARKS
ESTEVAN        CLEAR     57  55  94 W10       29.79S
KINDERSLEY     PTCLDY    50  45  81 SW9       29.62S
LLOYDMINSTER   CLOUDY    54  52  94 N5        29.52F
PRINCE ALBERT  CLOUDY    57  57 100 SW10      29.60R
REGINA         CLEAR     52  50  93 S7        29.77F
YORKTON        MOCLDY    61  59  94 SE5       29.71F
N. BATTLEFORD  CLEAR     52  50  93 SE7       29.55F
LA RONGE       LGT RAIN  63  61  94 SE9       29.57S
SASKATOON      PTCLDY    54  54 100 S14G21    29.62
SWIFT CURRENT  CLEAR     52  43  71 SW16G23   29.74F
$$
NOTE: THESE ARE AUTOMATED STATIONS WITH LIMITED QUALITY CONTROL
      "FAIR" INDICATES FEW OR NO CLOUDS BELOW 12,000 FEET WITH NO
      SIGNIFICANT WEATHER AND/OR OBSTRUCTIONS TO VISIBILITY.
      SKY/WX - SKY CONDITION AND SIGNIFICANT WEATHER.
      TMP - AIR TEMPERATURE.    DP   - DEWPOINT TEMPERATURE.
      RH  - RELATIVE HUMIDITY.  PRES - PRESSURE.
      HX  - HEAT INDEX.         WCI  - WIND CHILL INDEX.
$



USA.gov is the U.S. government's official web portal to all federal, state and local government web resources and services.